Simultaneous Nadir Overpasses (SNOs) Predictions

Prediction of SNOs between GOES-15 and METOP-A Satellite Orbit:

Table of predicted SNOs for the next 14.0 days since TLE Epoch: 7/13/2013
Index Date Time (GOES-15) GOES-15 Lat,Lon METOP-A Lat,Lon Distance(km) Time Diff (sec)
1 07/13/2013 06:35:59 0.04,-135.29 -0.19,-136.32 117.02 80
2 07/14/2013 06:12:40 0.06,-135.30 0.93,-131.33 452.82 80
3 07/15/2013 18:34:12 -0.03,-135.33 0.10,-135.89 63.27 80
4 07/18/2013 06:32:35 0.02,-135.34 -0.02,-135.49 16.98 80
5 07/20/2013 18:28:09 -0.01,-135.36 -0.07,-135.06 33.82 80
6 07/22/2013 06:49:50 -0.02,-135.35 -0.96,-139.66 490.12 80
7 07/23/2013 06:26:32 0.01,-135.35 0.17,-134.67 78.06 80
8 07/24/2013 18:48:04 0.02,-135.35 0.87,-139.22 440.60 80
9 07/25/2013 18:24:46
